This demonstration page uses our WeatherBlox Daily Observations layout. Learn more.

38.89511, -77.03637

Hourly Observations for September 9, 2015

Temp ( °F °C ) Dew Point ( °F °C ) Humidity (%) Winds ( mph kmh ) Pressure ( in mb ) Visibility ( mi km ) Precip ( " mm )
12:52 am 00:52 Clear 79 26 72 22 79 79 SSW 8 13 29.97 1015 10 16.09344 0 0
1:52 am 01:52 Partly Cloudy 77 25 72 22 83 83 S 7 11 29.97 1015 10 16.09344 0 0
2:52 am 02:52 Mostly Clear 77 25 73 23 89 89 S 12 19 29.97 1015 10 16.09344 0 0
3:52 am 03:52 Mostly Clear 75 24 73 23 94 94 SSW 8 13 29.97 1015 10 16.09344 0 0
4:52 am 04:52 Mostly Clear 75 24 73 23 94 94 S 7 11 29.94 1014 10 16.09344 0 0
5:52 am 05:52 Mostly Cloudy 75 24 73 23 94 94 S 8 13 29.97 1015 10 16.09344 0 0
6:22 am 06:22 Mostly Cloudy 75 24 73 23 94 94 S 7 11 29.97 1015 10 16.09344 0 0
6:37 am 06:37 Partly Cloudy 75 24 73 23 94 94 S 8 13 29.97 1015 10 16.09344 0 0
6:52 am 06:52 Mostly Cloudy 75 24 73 23 94 94 S 9 15 29.97 1015 10 16.09344 0 0
7:06 am 07:06 Mostly Cloudy 75 24 73 23 94 94 S 9 15 29.97 1015 10 16.09344 0 0
7:44 am 07:44 Mostly Cloudy 77 25 73 23 89 89 SSW 7 11 29.97 1015 10 16.09344 0 0
7:52 am 07:52 Mostly Cloudy 77 25 73 23 89 89 SSW 6 9 29.97 1015 10 16.09344 0 0
8:21 am 08:21 Mostly Cloudy 79 26 73 23 84 84 SSW 7 11 29.97 1015 10 16.09344 0 0
8:52 am 08:52 Mostly Cloudy 81 27 73 23 79 79 S 8 13 29.97 1015 10 16.09344 0 0
9:52 am 09:52 Mostly Cloudy 81 27 73 23 79 79 S 7 11 29.97 1015 10 16.09344 0 0
10:52 am 10:52 Partly Cloudy 84 29 73 23 70 70 SSE 7 11 29.94 1014 10 16.09344 0 0
11:52 am 11:52 Partly Cloudy 88 31 73 23 62 62 S 8 13 29.94 1014 10 16.09344 0 0
12:52 pm 12:52 Partly Cloudy 93 34 72 22 49 49 S 12 19 29.91 1013 10 16.09344 0 0
1:52 pm 13:52 Partly Cloudy 91 33 72 22 52 52 S 10 17 29.88 1012 10 16.09344 0 0
2:52 pm 14:52 Partly Cloudy 91 33 70 21 49 49 S 8 13 29.85 1011 10 16.09344 0 0
3:52 pm 15:52 Mostly Cloudy 93 34 68 20 44 44 SW 8 13 29.83 1010 10 16.09344 0 0
4:52 pm 16:52 Mostly Cloudy 91 33 68 20 46 46 SW 8 13 29.83 1010 10 16.09344 0 0
5:52 pm 17:52 Mostly Cloudy 91 33 68 20 46 46 SW 8 13 29.83 1010 10 16.09344 0 0
6:52 pm 18:52 Mostly Cloudy 88 31 68 20 52 52 SSW 12 19 29.8 1009 10 16.09344 0 0
7:52 pm 19:52 Mostly Cloudy 84 29 70 21 62 62 S 13 20 29.83 1010 10 16.09344 0 0
8:52 pm 20:52 Mostly Cloudy 82 28 72 22 70 70 S 12 19 29.85 1011 10 16.09344 0 0
9:33 pm 21:33 Mostly Cloudy with Light Rain 81 27 72 22 74 74 S 7 11 29.85 1011 10 16.09344 0.001 0.001
9:52 pm 21:52 Mostly Cloudy 81 27 72 22 74 74 S 8 13 29.85 1011 10 16.09344 0.001 0.001
10:52 pm 22:52 Mostly Cloudy 81 27 73 23 79 79 S 9 15 29.85 1011 10 16.09344 0 0
11:52 pm 23:52 Cloudy 79 26 72 22 79 79 SSW 7 11 29.85 1011 10 16.09344 0 0

Powered by AerisWeather